Hartford, CT

3:39 PM EST on December 12, 2017 (GMT -0500)
Hartford-brainard

Weather History for KHFD - July, 2013

Change the Weather History Date:

Wednesday, July 3, 2013

  Actual Average Record
Temperature  
Mean Temperature 78 °F -  
Max Temperature 87 °F 81 °F 99 °F (1966)
Min Temperature 73 °F 61 °F 46 °F (1957)
Cooling Degree Days 14    
Growing Degree Days 28 (Base 50)    
Moisture  
Dew Point 71 °F    
Average Humidity 79    
Maximum Humidity 91    
Minimum Humidity 63    
Precipitation  
Precipitation 0.00 in - - ()
Sea Level Pressure  
Sea Level Pressure 30.19 in    
Wind  
Wind Speed 7 mph (South)    
Max Wind Speed 12 mph    
Max Gust Speed 18 mph    
Visibility 10 miles    
Events      
Averages and records for this station are not official NWS values.
T = Trace of Precipitation, MM = Missing Value Source: NWS Daily Summary

Daily Weather History Graph

Daily Weather History Graph

Search for Another Location

Airport or City:

Trip Planner

Search our weather history database for the weather conditions in past years. The results will help you decide how hot, cold, wet, or windy it might be!

Date:

Astronomy

Jul. 03, 2013 Rise Set
Actual Time 5:20 AM EDT 8:28 PM EDT
Civil Twilight 4:46 AM EDT 9:02 PM EDT
Nautical Twilight 4:03 AM EDT 9:45 PM EDT
Astronomical Twilight 3:11 AM EDT 10:37 PM EDT
Moon 1:58 AM EDT (7/3) 4:35 PM EDT (7/3)
Length of Visible Light 16h 15m
Length of Day
15h 07m
Waning Crescent, 18% of the Moon is Illuminated
Jul 3
Waning Crescent
Jul 8
New
Jul 15
First Quarter
Jul 22
Full
Jul 29
Last Quarter

Hourly Weather History & Observations

Time (EDT) Temp. Heat Index Dew Point Humidity Pressure Visibility Wind Dir Wind Speed Gust Speed Precip Events Conditions
12:53 AM 73.9 °F - 71.1 °F 91% 30.16 in 10.0 mi South 5.8 mph - N/A   Clear
1:53 AM 73.9 °F - 71.1 °F 91% 30.17 in 10.0 mi South 3.5 mph - N/A   Partly Cloudy
2:53 AM 73.9 °F - 70.0 °F 87% 30.17 in 10.0 mi South 5.8 mph - N/A   Overcast
3:53 AM 73.0 °F - 70.0 °F 90% 30.17 in 10.0 mi South 8.1 mph - N/A   Scattered Clouds
4:53 AM 73.0 °F - 70.0 °F 90% 30.18 in 10.0 mi South 6.9 mph - N/A   Overcast
5:53 AM 73.0 °F - 70.0 °F 90% 30.19 in 10.0 mi South 9.2 mph - N/A   Clear
6:00 AM 73.4 °F - 69.8 °F 88% 30.19 in 10.0 mi South 10.4 mph - N/A   Partly Cloudy
6:53 AM 73.9 °F - 70.0 °F 87% 30.21 in 10.0 mi SSW 9.2 mph - N/A   Scattered Clouds
7:53 AM 75.0 °F - 70.0 °F 84% 30.22 in 10.0 mi South 6.9 mph - N/A   Partly Cloudy
8:53 AM 75.0 °F - 70.0 °F 84% 30.23 in 10.0 mi SSW 6.9 mph - N/A   Clear
9:53 AM 77.0 °F - 71.1 °F 82% 30.22 in 10.0 mi SSW 4.6 mph - N/A   Clear
10:53 AM 82.9 °F 88.0 °F 72.0 °F 69% 30.22 in 10.0 mi WSW 8.1 mph - N/A   Clear
11:53 AM 84.0 °F 89.0 °F 71.1 °F 65% 30.21 in 10.0 mi SSW 9.2 mph 16.1 mph N/A   Mostly Cloudy
12:53 PM 84.9 °F 90.7 °F 72.0 °F 65% 30.20 in 10.0 mi South 8.1 mph - N/A   Mostly Cloudy
1:53 PM 84.9 °F 90.1 °F 71.1 °F 63% 30.19 in 10.0 mi SSW 6.9 mph 18.4 mph N/A   Partly Cloudy
2:53 PM 84.0 °F 90.2 °F 73.0 °F 69% 30.18 in 10.0 mi SSW 10.4 mph - N/A   Mostly Cloudy
3:53 PM 84.0 °F 89.6 °F 72.0 °F 67% 30.17 in 10.0 mi South 6.9 mph - N/A   Overcast
4:53 PM 84.9 °F 90.7 °F 72.0 °F 65% 30.15 in 10.0 mi South 11.5 mph - N/A   Scattered Clouds
5:53 PM 84.0 °F 89.6 °F 72.0 °F 67% 30.16 in 10.0 mi SSW 8.1 mph 16.1 mph N/A   Partly Cloudy
6:53 PM 82.9 °F 88.8 °F 73.0 °F 72% 30.17 in 10.0 mi South 8.1 mph - N/A   Scattered Clouds
7:53 PM 81.0 °F 85.8 °F 73.0 °F 77% 30.17 in 10.0 mi South 9.2 mph - N/A   Scattered Clouds
8:53 PM 79.0 °F - 72.0 °F 79% 30.19 in 10.0 mi South 6.9 mph - N/A   Clear
9:53 PM 77.0 °F - 72.0 °F 84% 30.21 in 10.0 mi SSW 5.8 mph - N/A   Clear
10:53 PM 75.9 °F - 72.0 °F 87% 30.20 in 10.0 mi South 8.1 mph - N/A   Clear
11:53 PM 75.9 °F - 72.0 °F 87% 30.20 in 10.0 mi South 5.8 mph - N/A   Clear